Wind_Speed
8 8 8 7 7 6 5 4 4 3 3 2 1 1 2 3 4 5 6 7 7 8 8 8 9 9 9 10 10 11 12 13 14 15 16 16 17 18 18 19 20 21 22 23 24 24 25 25 26
10 9 8 8 7 6 4 3 3 2 1 1 3 4 5 6 7 7 8 8 8 8 9 9 9 10 10 11 11 12 13 14 15 16 17 18 18 19 20 21 22 23 23 24 25 26 26 27 28
10 9 8 7 6 4 3 1 1 1 3 4 6 7 8 8 8 9 9 9 9 9 9 10 10 11 12 12 13 14 15 16 16 17 18 19 19 20 21 22 23 24 25 26 26 27 28 29 30
8 8 6 5 4 2 1 1 2 4 5 6 8 9 9 9 9 9 9 9 10 10 10 11 11 12 13 13 14 15 16 16 17 18 19 19 20 21 22 23 24 25 26 27 27 28 29 30 31
6 5 4 2 1 1 2 4 5 7 8 9 10 10 10 10 10 9 9 10 10 10 11 11 12 13 13 14 15 15 16 17 18 18 19 20 21 22 23 24 25 26 27 27 28 29 30 31 32
3 2 1 2 3 5 6 7 8 9 10 11 11 11 11 10 9 9 10 10 10 11 11 12 12 13 14 14 15 16 16 17 18 19 20 20 21 22 23 24 25 26 27 28 29 30 31 32 33
0 2 3 4 6 7 9 10 10 11 12 12 12 11 11 10 9 10 10 10 11 11 12 12 13 13 14 14 15 16 17 18 19 19 20 21 22 23 24 25 26 27 28 29 30 31 32 32 34
3 4 6 7 9 10 11 12 12 13 13 12 12 11 11 10 10 10 10 11 11 11 12 12 13 14 14 15 16 16 17 18 19 20 21 22 23 24 25 26 27 28 29 30 31 32 33 34 35
6 7 9 10 11 12 13 13 13 13 13 12 12 11 11 10 10 10 10 11 11 12 12 13 13 14 15 16 17 17 18 19 20 21 23 24 25 26 27 28 29 30 31 32 33 34 35 36 37
8 10 11 13 13 14 14 14 14 14 14 13 11 12 11 11 10 10 11 11 12 12 12 13 13 14 15 16 17 18 19 21 22 23 24 26 27 28 29 30 32 33 34 35 36 37 38 39 40
11 12 14 15 16 15 15 15 15 15 14 13 12 12 12 12 11 11 11 11 12 12 13 13 14 15 16 17 18 19 20 22 23 24 26 27 28 30 31 32 34 35 36 37 38 39 40 41 42
13 14 16 16 17 17 16 16 15 16 15 13 13 13 13 12 12 12 12 12 13 13 14 14 15 16 17 18 19 20 21 22 24 25 27 28 30 31 33 34 35 37 38 39 40 41 42 43 44
15 16 18 18 18 18 17 17 16 17 15 14 14 14 14 14 13 13 13 13 13 14 15 16 16 17 18 19 20 21 22 23 25 26 27 29 31 32 34 36 37 39 40 41 42 43 44 45 46
18 18 19 20 20 19 18 17 18 18 16 16 16 16 15 15 15 15 15 15 15 16 16 17 18 19 19 20 21 22 23 24 25 27 28 30 32 34 36 37 39 41 42 43 44 45 46 47 48
19 20 20 21 21 20 18 16 20 19 18 17 17 17 17 17 17 17 17 17 18 18 19 19 20 21 21 22 23 24 25 27 28 29 31 32 34 36 38 40 41 43 45 46 47 48 49 49 50
21 21 21 22 22 21 19 15 21 21 20 19 19 19 19 19 19 20 20 20 20 20 21 22 22 23 24 25 26 27 28 30 31 32 34 35 37 39 40 42 44 46 47 49 49 50 51 52 53
21 22 22 24 24 22 21 16 20 24 22 21 21 21 21 21 21 22 23 22 23 23 23 24 25 25 26 27 28 30 31 32 34 35 37 38 40 42 43 45 46 48 50 51 52 53 53 54 54
22 22 22 25 25 23 21 18 20 26 24 22 23 23 23 23 24 25 24 25 25 25 26 27 27 28 29 30 31 33 34 36 37 38 40 41 43 44 46 47 49 50 52 53 54 55 56 56 56
24 24 24 25 26 24 22 20 21 25 26 24 24 25 24 24 26 26 26 27 27 28 29 29 30 31 32 33 34 35 36 38 40 41 43 44 46 47 49 50 52 53 54 55 56 57 58 58 58
25 25 25 25 26 26 23 20 22 25 25 25 25 25 26 26 27 27 28 28 29 30 31 32 32 33 34 36 37 38 39 41 43 44 46 48 49 50 51 53 54 55 56 57 58 59 59 60 60
24 26 26 26 26 25 25 18 21 24 25 25 26 26 27 27 28 29 29 30 31 32 33 34 35 36 37 39 40 41 43 44 46 48 49 51 52 53 54 55 56 57 58 59 60 60 60 61 61
25 26 27 27 26 25 25 22 20 22 25 26 26 27 28 28 29 30 31 32 33 35 36 37 38 39 40 42 43 44 46 47 49 50 52 53 54 55 56 57 59 59 60 60 60 61 61 61 61
26 26 26 26 26 24 24 24 22 22 24 26 27 28 28 29 30 32 33 34 36 37 38 40 41 42 44 45 47 48 49 50 52 53 54 56 57 58 58 59 61 61 61 61 62 62 61 62 62
26 27 27 26 25 24 23 23 24 24 25 26 28 29 29 30 32 33 35 36 38 39 41 42 43 44 46 48 49 51 52 53 54 55 57 58 59 60 60 61 63 62 62 63 63 63 62 62 62
26 27 29 28 26 24 24 23 24 27 28 29 29 30 31 32 33 35 36 38 39 41 43 44 46 47 49 51 52 53 54 56 56 58 59 60 60 61 62 63 64 63 64 64 64 64 63 62 63
26 27 29 31 30 27 24 22 24 28 30 32 32 33 33 33 35 36 38 39 41 43 44 46 47 49 51 53 54 55 56 57 58 59 60 61 61 62 63 64 65 65 65 65 64 64 63 64 64
27 28 30 32 33 31 27 23 24 29 31 33 34 35 35 36 38 39 41 42 44 44 46 47 49 50 52 54 55 55 57 58 59 60 61 61 62 64 65 65 65 65 65 65 64 64 64 64 65
28 29 31 33 36 37 34 28 29 30 32 34 37 38 38 39 41 42 43 44 45 46 47 48 50 51 52 54 55 56 57 58 59 60 61 62 64 65 66 66 66 66 66 65 65 64 64 64 65
28 30 32 34 36 39 41 35 32 35 38 40 41 41 42 42 42 43 44 45 46 47 48 49 50 51 52 54 55 56 57 58 59 61 62 64 65 65 66 66 67 66 66 65 64 64 64 64 64
30 31 33 36 38 40 44 41 35 40 43 45 45 45 45 45 46 46 46 47 47 48 49 50 51 53 54 55 56 57 58 59 61 62 64 66 66 67 67 68 67 66 65 65 64 64 64 63 63
Wind_Direction
108 109 108 107 107 102 103 100 97 97 93 86 63 348 311 302 297 292 289 283 282 284 287 289 292 294 296 298 299 300 301 301 301 300 298 297 295 294 293 293 292 291 290 289 288 287 285 284 282
107 107 108 108 107 108 108 104 99 87 51 343 316 308 303 300 296 292 289 285 284 287 290 292 294 296 298 299 301 302 302 302 301 300 299 298 296 295 295 294 293 292 291 290 289 288 287 285 283
106 106 108 107 107 109 113 103 51 328 309 303 301 301 301 299 296 292 289 288 289 291 293 295 297 299 301 302 303 303 302 302 301 300 299 298 297 296 296 295 294 293 292 291 290 289 288 286 285
106 105 104 104 103 95 65 322 308 303 300 297 296 296 296 295 292 289 288 289 291 293 296 298 300 302 303 304 304 304 304 303 302 301 300 299 298 298 297 296 295 294 293 293 291 290 289 287 285
106 103 99 90 47 334 313 305 302 301 300 298 295 293 292 290 287 285 286 289 292 295 298 301 303 305 306 306 306 306 305 304 303 302 302 301 300 299 299 298 296 296 295 294 293 292 290 289 287
109 89 63 345 319 311 308 307 304 303 301 299 295 291 289 287 285 284 286 290 294 297 300 303 305 307 308 308 308 308 307 306 306 305 304 304 303 302 302 301 300 298 297 296 295 294 292 291 289
60 336 318 312 308 308 308 309 306 304 301 299 295 290 288 286 284 284 286 290 295 299 302 305 307 309 310 310 310 310 309 309 308 308 308 307 307 306 305 304 303 302 301 300 298 297 295 294 292
303 306 306 308 307 306 307 306 304 302 300 297 293 288 286 286 285 285 288 292 297 302 306 308 310 311 311 311 311 311 311 311 311 311 311 311 310 309 308 307 305 304 303 303 301 300 299 297 295
299 303 304 307 306 304 305 304 303 300 297 294 289 285 283 284 285 287 290 295 299 304 307 309 311 312 312 312 312 312 312 312 312 312 312 312 312 311 311 310 308 307 306 304 303 302 300 299 297
297 300 303 306 306 304 303 303 302 299 296 292 287 283 283 284 285 286 290 293 298 303 306 309 310 312 313 313 313 314 313 313 313 313 314 313 313 313 312 311 310 309 307 306 304 303 301 300 299
293 297 300 303 305 305 303 302 301 299 294 291 286 283 283 284 284 285 288 292 297 301 304 307 309 311 313 314 314 315 315 315 316 316 316 316 315 315 314 313 311 310 309 307 306 304 302 301 300
292 296 299 301 303 304 303 302 301 297 292 291 286 283 281 282 283 284 286 290 293 297 300 303 306 308 311 312 313 314 315 316 316 316 316 317 317 316 316 315 313 312 311 309 308 306 304 302 301
293 298 300 302 302 303 303 302 298 292 292 291 286 283 281 280 281 282 284 286 289 292 296 299 302 305 307 309 310 312 313 314 315 316 317 317 318 318 317 317 315 314 313 311 310 308 306 304 302
294 298 300 300 302 304 304 301 294 290 292 287 284 283 281 279 279 280 280 282 285 288 291 294 297 300 302 304 306 308 310 311 313 314 316 317 318 318 318 317 317 316 315 313 312 310 308 306 304
294 298 299 299 301 302 303 300 293 292 289 285 283 281 280 278 278 278 279 281 283 285 288 290 293 296 298 301 302 304 306 308 310 311 313 315 316 317 317 316 316 315 315 314 313 311 309 308 306
293 297 299 298 299 301 301 300 290 291 288 284 281 279 278 277 277 277 278 279 281 284 286 288 290 292 294 296 299 301 303 304 306 307 309 311 312 313 314 314 314 314 314 313 312 311 310 308 306
292 296 299 297 298 300 301 297 287 290 288 285 282 278 276 275 275 275 276 278 281 283 285 286 288 290 292 294 296 298 300 301 303 305 306 307 309 310 311 312 313 313 312 312 311 310 309 308 307
293 295 298 298 298 300 301 299 286 286 288 285 282 279 276 274 272 274 276 277 279 281 283 284 286 288 290 293 294 296 298 299 302 303 305 306 307 308 309 310 311 311 311 311 310 310 309 308 307
294 296 297 298 299 300 302 302 290 286 288 286 283 281 278 274 273 275 275 276 278 280 281 283 285 287 289 291 293 295 296 298 300 301 303 304 305 307 307 308 309 309 309 309 309 309 308 307 306
296 297 298 299 300 301 302 305 295 289 289 287 284 282 279 277 275 275 276 277 278 280 281 283 285 287 289 290 292 294 295 297 298 300 301 303 304 305 306 306 307 308 308 307 307 307 307 307 305
299 300 301 302 302 303 302 303 295 291 290 288 285 283 281 278 277 276 276 277 278 279 280 283 285 287 288 289 291 293 294 296 297 298 300 301 302 303 304 305 305 306 306 306 306 306 306 306 305
302 302 304 305 306 308 307 308 299 293 291 288 286 284 282 280 278 277 276 276 277 278 280 282 284 286 287 289 291 292 294 295 295 297 299 300 301 302 303 303 304 304 305 304 304 305 305 305 305
304 305 306 308 309 310 309 308 304 296 291 289 287 285 283 280 279 277 277 276 277 279 281 283 285 286 287 289 290 292 293 294 295 296 298 298 300 301 302 302 303 304 304 303 303 304 304 304 305
307 307 308 309 310 311 312 311 308 301 297 293 290 288 286 283 281 280 279 279 280 281 282 284 285 287 288 289 290 292 292 293 294 296 296 297 298 300 301 301 302 303 303 303 303 303 303 304 305
308 309 310 310 312 315 317 317 312 306 302 298 295 292 289 287 286 285 285 285 285 286 286 287 288 288 289 290 291 291 292 293 294 295 296 297 298 299 299 300 301 302 302 302 302 303 302 303 304
309 310 311 312 312 314 315 317 313 306 303 300 297 295 294 293 292 292 291 291 291 291 291 290 290 290 290 290 291 291 292 293 294 295 295 296 297 298 298 299 300 301 301 301 302 302 302 303 304
308 309 309 310 309 310 312 315 311 306 304 302 300 300 299 299 297 296 295 294 294 293 292 292 291 291 291 291 291 291 292 293 294 294 295 296 296 297 297 299 299 300 300 301 301 301 302 303 305
308 309 310 311 311 311 310 316 315 308 303 300 299 299 299 299 298 298 297 296 296 295 294 293 293 292 292 292 292 292 293 293 294 294 295 295 295 296 297 298 299 300 300 300 301 301 302 303 305
307 308 309 308 309 310 309 314 315 308 304 301 301 302 301 301 300 299 298 297 296 295 295 294 294 293 293 292 292 293 294 294 293 294 294 294 295 297 298 298 299 300 300 300 300 301 302 303 304
305 308 309 308 308 308 306 311 313 306 304 304 305 305 305 304 303 302 301 299 298 297 296 295 294 294 293 293 293 293 294 293 293 294 294 295 296 297 297 298 299 299 299 299 299 300 301 302 303
Height
5881 5881 5882 5883 5884 5884 5884 5884 5883 5882 5882 5882 5882 5881 5881 5881 5881 5882 5880 5877 5876 5876 5875 5874 5873 5872 5871 5871 5870 5869 5868 5867 5866 5865 5864 5863 5862 5861 5860 5859 5857 5856 5855 5854 5853 5852 5851 5851 5850
5882 5882 5884 5884 5884 5884 5884 5883 5883 5882 5882 5881 5881 5880 5880 5879 5878 5878 5876 5875 5874 5874 5873 5872 5871 5870 5869 5868 5867 5866 5865 5864 5863 5862 5860 5859 5858 5857 5856 5854 5853 5852 5851 5849 5848 5847 5846 5845 5844
5883 5884 5885 5885 5884 5884 5884 5883 5883 5882 5881 5881 5880 5879 5878 5877 5876 5876 5875 5873 5872 5871 5870 5870 5869 5868 5866 5865 5864 5863 5862 5861 5859 5858 5857 5855 5854 5853 5851 5850 5848 5847 5845 5844 5843 5841 5840 5839 5838
5885 5885 5886 5886 5885 5884 5883 5883 5882 5881 5880 5879 5879 5878 5877 5876 5874 5873 5872 5871 5870 5869 5868 5867 5866 5865 5864 5862 5861 5860 5859 5857 5856 5854 5853 5852 5850 5848 5847 5845 5843 5841 5840 5838 5837 5835 5834 5832 5831
5885 5886 5886 5885 5884 5884 5883 5882 5881 5880 5879 5878 5877 5876 5875 5874 5872 5871 5870 5869 5868 5867 5866 5865 5863 5862 5861 5859 5858 5857 5855 5854 5852 5851 5849 5847 5846 5844 5842 5840 5838 5836 5834 5832 5830 5829 5827 5826 5824
5886 5886 5886 5885 5884 5883 5882 5880 5879 5878 5877 5876 5874 5873 5872 5871 5870 5869 5868 5867 5866 5864 5863 5862 5861 5859 5858 5856 5855 5853 5852 5850 5848 5847 5845 5843 5841 5839 5837 5835 5833 5830 5828 5826 5824 5822 5820 5818 5817
5886 5885 5885 5884 5883 5882 5880 5879 5877 5876 5875 5873 5872 5871 5870 5869 5867 5866 5865 5864 5863 5862 5860 5859 5858 5856 5855 5853 5852 5850 5848 5846 5845 5843 5841 5839 5836 5834 5832 5829 5827 5824 5822 5820 5817 5815 5813 5811 5809
5885 5885 5883 5882 5881 5880 5878 5876 5875 5873 5872 5870 5869 5868 5867 5866 5865 5864 5863 5862 5860 5859 5858 5856 5855 5853 5851 5850 5848 5846 5845 5843 5841 5838 5836 5834 5831 5829 5826 5824 5821 5818 5816 5813 5810 5808 5805 5802 5800
5884 5884 5882 5881 5879 5878 5876 5874 5873 5871 5869 5868 5866 5865 5865 5863 5862 5861 5860 5859 5858 5856 5855 5853 5851 5850 5848 5846 5844 5843 5841 5838 5836 5834 5831 5829 5826 5823 5820 5817 5815 5812 5809 5806 5803 5800 5797 5794 5791
5882 5882 5880 5879 5877 5875 5873 5871 5870 5868 5866 5865 5864 5862 5861 5860 5859 5859 5857 5856 5855 5853 5852 5850 5848 5846 5844 5842 5840 5838 5836 5834 5832 5829 5826 5823 5820 5817 5814 5811 5808 5805 5801 5798 5794 5791 5788 5784 5781
5880 5879 5877 5876 5874 5872 5870 5868 5866 5864 5863 5862 5861 5860 5858 5857 5856 5855 5854 5853 5852 5850 5848 5847 5845 5843 5841 5839 5836 5834 5832 5829 5827 5824 5821 5818 5815 5811 5808 5804 5801 5797 5793 5790 5786 5782 5778 5774 5771
5878 5876 5875 5873 5871 5869 5867 5865 5863 5861 5860 5859 5857 5856 5855 5854 5853 5852 5851 5850 5848 5846 5845 5843 5841 5839 5837 5835 5832 5830 5827 5825 5822 5819 5815 5812 5809 5805 5801 5797 5793 5789 5785 5781 5777 5773 5768 5764 5760
5875 5874 5872 5870 5868 5866 5864 5862 5860 5858 5856 5855 5854 5853 5852 5850 5849 5848 5847 5846 5844 5843 5841 5839 5837 5835 5833 5830 5828 5825 5823 5820 5817 5814 5810 5806 5802 5799 5794 5790 5786 5781 5777 5772 5768 5763 5758 5754 5749
5872 5870 5868 5866 5864 5863 5861 5859 5856 5854 5853 5851 5850 5849 5848 5847 5845 5844 5843 5842 5840 5838 5837 5835 5833 5830 5828 5826 5823 5820 5818 5815 5811 5808 5804 5800 5796 5792 5787 5783 5778 5773 5768 5763 5758 5753 5748 5743 5738
5868 5867 5865 5862 5860 5859 5858 5856 5852 5850 5849 5847 5846 5845 5844 5842 5841 5840 5838 5837 5836 5834 5832 5830 5828 5826 5823 5821 5818 5815 5812 5809 5805 5802 5798 5793 5789 5785 5780 5775 5770 5765 5759 5754 5748 5743 5737 5732 5726
5865 5863 5861 5859 5857 5855 5855 5854 5848 5845 5844 5843 5842 5840 5839 5838 5836 5835 5833 5832 5831 5829 5827 5825 5823 5820 5818 5815 5812 5809 5806 5802 5799 5795 5791 5786 5782 5777 5772 5767 5761 5756 5750 5744 5738 5732 5727 5721 5715
5861 5859 5857 5855 5853 5851 5850 5849 5846 5840 5839 5838 5837 5835 5834 5833 5831 5829 5828 5826 5825 5823 5821 5819 5817 5814 5812 5809 5806 5803 5799 5795 5792 5787 5783 5779 5774 5768 5763 5758 5752 5746 5740 5734 5728 5722 5716 5709 5703
5857 5855 5853 5850 5848 5847 5845 5844 5841 5836 5834 5833 5831 5830 5828 5827 5825 5823 5822 5821 5819 5817 5815 5813 5810 5807 5805 5802 5799 5795 5792 5787 5783 5779 5775 5770 5765 5759 5754 5748 5742 5736 5730 5724 5717 5711 5704 5697 5691
5852 5850 5849 5846 5843 5842 5840 5839 5835 5831 5829 5827 5825 5824 5822 5821 5819 5817 5816 5814 5812 5810 5808 5806 5803 5800 5797 5794 5791 5788 5784 5779 5775 5770 5766 5760 5755 5750 5744 5738 5732 5725 5719 5712 5705 5698 5691 5684 5677
5847 5845 5843 5842 5838 5836 5836 5834 5829 5825 5823 5821 5819 5817 5816 5814 5812 5811 5809 5807 5805 5803 5800 5798 5795 5792 5789 5786 5782 5779 5775 5771 5766 5761 5755 5750 5745 5739 5733 5727 5720 5714 5707 5700 5693 5686 5679 5671 5664
5842 5839 5838 5836 5834 5831 5830 5830 5825 5820 5817 5815 5813 5811 5809 5807 5805 5804 5802 5799 5797 5795 5792 5789 5786 5783 5780 5776 5773 5770 5765 5761 5756 5750 5745 5740 5734 5728 5722 5715 5708 5702 5695 5687 5680 5673 5665 5658 5650
5837 5835 5832 5830 5828 5826 5823 5822 5820 5815 5811 5809 5806 5804 5802 5800 5798 5796 5794 5791 5789 5786 5783 5781 5777 5774 5770 5766 5763 5759 5755 5751 5745 5739 5734 5728 5722 5716 5709 5702 5695 5689 5681 5674 5666 5659 5651 5643 5635
5832 5829 5827 5825 5823 5822 5818 5816 5814 5810 5806 5802 5800 5797 5795 5793 5790 5788 5786 5783 5780 5777 5774 5771 5768 5764 5760 5756 5752 5748 5744 5739 5733 5728 5722 5716 5710 5703 5696 5689 5682 5675 5668 5660 5652 5645 5637 5629 5621
5826 5824 5822 5820 5818 5817 5814 5810 5807 5803 5799 5796 5793 5790 5787 5785 5783 5780 5777 5775 5772 5768 5765 5762 5758 5754 5750 5745 5741 5736 5732 5726 5721 5715 5709 5702 5696 5690 5683 5675 5668 5661 5653 5645 5638 5630 5622 5614 5605
5821 5819 5816 5814 5812 5811 5808 5804 5801 5795 5791 5788 5785 5782 5780 5777 5774 5772 5769 5766 5763 5759 5756 5752 5748 5744 5739 5734 5729 5724 5719 5713 5708 5702 5695 5689 5682 5676 5668 5660 5653 5646 5638 5630 5622 5614 5606 5598 5590
5816 5813 5811 5807 5805 5804 5802 5800 5796 5789 5784 5780 5777 5774 5772 5769 5766 5764 5760 5757 5753 5750 5746 5742 5737 5733 5727 5722 5717 5711 5706 5700 5694 5688 5681 5674 5668 5661 5653 5645 5638 5631 5622 5614 5606 5599 5590 5582 5574
5811 5808 5805 5801 5797 5796 5795 5794 5790 5783 5777 5773 5769 5766 5764 5761 5758 5754 5751 5747 5743 5739 5734 5730 5725 5720 5714 5709 5703 5698 5692 5686 5680 5673 5666 5659 5652 5645 5638 5630 5622 5615 5607 5599 5590 5583 5575 5566 5558
5806 5802 5799 5794 5789 5785 5785 5786 5782 5776 5771 5767 5762 5759 5757 5753 5749 5745 5741 5736 5732 5727 5722 5717 5712 5707 5701 5695 5689 5683 5678 5671 5664 5657 5651 5644 5637 5629 5622 5614 5607 5599 5591 5583 5575 5567 5559 5550 5542
5800 5797 5792 5788 5784 5778 5773 5779 5775 5767 5761 5757 5754 5751 5747 5744 5740 5735 5730 5725 5720 5715 5709 5704 5698 5692 5686 5680 5674 5669 5663 5655 5649 5642 5635 5628 5620 5613 5605 5598 5590 5582 5574 5566 5558 5551 5543 5535 5526
5794 5791 5787 5782 5777 5771 5765 5769 5766 5758 5751 5747 5744 5740 5736 5732 5728 5723 5718 5713 5707 5702 5696 5690 5684 5678 5672 5665 5659 5653 5647 5639 5632 5626 5619 5611 5604 5596 5589 5581 5573 5566 5558 5550 5542 5535 5527 5519 5510